This is the latest recevied weather packets stored in our database for station/object NZ3C. If no packets are shown the sender has not sent any weather packets the latest 10 day(s).
| Time | Temp. | Humidity | Pressure | Rain* | Wind** | Luminosity | Snow |
|---|---|---|---|---|---|---|---|
| 1777401746 | 22.22° C | 40% | 1020.8 hPa | 0 mm | - | 815 W/m² | - |
| 1777401442 | 21.67° C | 38% | 1020.9 hPa | 0 mm | - | 820 W/m² | - |
| 1777401137 | 22.22° C | 38% | 1020.8 hPa | 0 mm | - | 819 W/m² | - |
| 1777400833 | 22.22° C | 40% | 1020.8 hPa | 0 mm | - | 831 W/m² | - |
| 1777400530 | 21.67° C | 42% | 1020.8 hPa | 0 mm | - | 861 W/m² | - |
| 1777400227 | 21.67° C | 42% | 1020.7 hPa | 0 mm | - | 838 W/m² | - |
| 1777399923 | 21.67° C | 39% | 1020.4 hPa | 0 mm | - | 811 W/m² | - |
| 1777399620 | 21.67° C | 39% | 1020.5 hPa | 0 mm | - | 878 W/m² | - |
| 1777399317 | 21.11° C | 42% | 1020.3 hPa | 0 mm | - | 816 W/m² | - |
| 1777399015 | 21.11° C | 44% | 1020.2 hPa | 0 mm | - | 916 W/m² | - |
| 1777398712 | 20° C | 44% | 1020.6 hPa | 0 mm | - | 921 W/m² | - |
| 1777398408 | 20° C | 45% | 1021.7 hPa | 0 mm | - | 624 W/m² | - |
| 1777398105 | 20° C | 44% | 1021.8 hPa | 0 mm | - | 511 W/m² | - |
| 1777397802 | 20° C | 44% | 1021.8 hPa | 0 mm | - | 803 W/m² | - |
| 1777397497 | 20° C | 47% | 1021.8 hPa | 0 mm | - | 870 W/m² | - |
| 1777397194 | 19.44° C | 45% | 1021.3 hPa | 0 mm | - | 555 W/m² | - |
| 1777396891 | 20° C | 47% | 1020.9 hPa | 0 mm | - | 447 W/m² | - |
| 1777396587 | 20° C | 47% | 1020.1 hPa | 0 mm | - | 326 W/m² | - |
| 1777396285 | 19.44° C | 49% | 1019.9 hPa | 0 mm | - | 698 W/m² | - |
| 1777395981 | 18.89° C | 50% | 1020.1 hPa | 0 mm | - | 407 W/m² | - |
| 1777395681 | 18.89° C | 49% | 1020.2 hPa | 0 mm | - | 291 W/m² | - |
| 1777395377 | 18.89° C | 47% | 1020.5 hPa | 0 mm | - | 219 W/m² | - |
| 1777395076 | 18.89° C | 48% | 1020.1 hPa | 0 mm | - | 242 W/m² | - |
| 1777394772 | 19.44° C | 48% | 1020.2 hPa | 0 mm | - | 320 W/m² | - |
| 1777394468 | 19.44° C | 48% | 1020.2 hPa | 0 mm | - | 376 W/m² | - |
* Rain latest hour (hover to see other rain measurements)
** Current wind speed in m/s (hover to see current wind gust speed)